Pratica di Mare, Italy

4:11 PM CEST on June 24, 2017 (GMT +0200)
Pratica Di Mare Mil

Weather History for LIRE - December, 2013

Change the Weather History Date:

Tuesday, December 10, 2013

  Actual Average Record
Temperature  
Mean Temperature 50 °F -  
Max Temperature 58 °F 56 °F 64 °F (2011)
Min Temperature 42 °F 41 °F 28 °F (2012)
Degree Days  
Heating Degree Days 15    
Moisture  
Dew Point 43 °F    
Average Humidity 82    
Maximum Humidity 100    
Minimum Humidity 58    
Precipitation  
Precipitation 0.00 in 0.13 in - ()
Sea Level Pressure  
Sea Level Pressure 30.45 in    
Wind  
Wind Speed 7 mph ()    
Max Wind Speed 12 mph    
Max Gust Speed -    
Visibility 7.4 miles    
Events      
Averages and records for this station are not official NWS values.
T = Trace of Precipitation, MM = Missing Value Source: Averaged Metar Reports

Daily Weather History Graph

Daily Weather History Graph

Search for Another Location

Airport or City:

Trip Planner

Search our weather history database for the weather conditions in past years. The results will help you decide how hot, cold, wet, or windy it might be!

Date:

Astronomy

Dec. 10, 2013 Rise Set
Actual Time 7:26 AM CET 4:39 PM CET
Civil Twilight 6:54 AM CET 5:11 PM CET
Nautical Twilight 6:20 AM CET 5:46 PM CET
Astronomical Twilight 5:46 AM CET 6:19 PM CET
Moon 12:36 PM CET (12/10) 12:21 AM CET (12/10)
Length of Visible Light 10h 16m
Length of Day
9h 13m
First Quarter, 59% of the Moon is Illuminated
Dec 10
First Quarter
Dec 17
Full
Dec 25
Last Quarter
Jan 1
New
Jan 8
First Quarter

Hourly Weather History & Observations

Time (CET) Temp. Windchill Dew Point Humidity Pressure Visibility Wind Dir Wind Speed Gust Speed Precip Events Conditions
12:55 AM 44.6 °F 39.7 °F 42.8 °F 93% 30.42 in - NNE 9.2 mph - N/A   Clear
1:00 AM 45 °F - 42 °F 87% 30.45 in 6 mi NNE 9.2 mph - -  
1:55 AM 44.6 °F 40.7 °F 42.8 °F 93% 30.42 in - North 6.9 mph - N/A   Clear
2:55 AM 42.8 °F 38.6 °F 42.8 °F 100% 30.42 in - NNE 6.9 mph - N/A   Clear
3:55 AM 44.6 °F 40.2 °F 42.8 °F 93% 30.42 in - NNE 8.1 mph - N/A   Clear
4:00 AM 44 °F - 42 °F 91% 30.45 in 6 mi NNE 8.1 mph - -  
4:55 AM 42.8 °F 37.5 °F 42.8 °F 100% 30.42 in 5.0 mi NNE 9.2 mph - N/A   Unknown
5:55 AM 42.8 °F 37.5 °F 41.0 °F 93% 30.42 in 5.0 mi North 9.2 mph - N/A   Unknown
6:55 AM 42.8 °F 36.6 °F 41.0 °F 93% 30.42 in - NNE 11.5 mph - N/A   Clear
7:00 AM 44 °F - 41 °F 87% 30.45 in 7 mi NNE 11.5 mph - -  
7:55 AM 42.8 °F 37.5 °F 41.0 °F 93% 30.42 in - NNE 9.2 mph - N/A   Clear
8:55 AM 44.6 °F 39.7 °F 39.2 °F 81% 30.45 in - NNE 9.2 mph - N/A   Clear
9:55 AM 46.4 °F 41.9 °F 41.0 °F 81% 30.45 in - NNE 9.2 mph - N/A   Clear
10:00 AM 47 °F - 41 °F 74% 30.48 in 7 mi NNE 9.2 mph - -  
10:55 AM 50.0 °F - 42.8 °F 76% 30.48 in - North 9.2 mph - N/A   Clear
11:55 AM 53.6 °F - 44.6 °F 72% 30.48 in - North 4.6 mph - N/A   Clear
12:55 PM 53.6 °F - 44.6 °F 72% 30.45 in - NNW 4.6 mph - N/A   Clear
1:00 PM 54 °F - 45 °F 62% 30.47 in 12 mi NNW 4.6 mph - -   Clear
1:55 PM 57.2 °F - 42.8 °F 59% 30.45 in - NNW 5.8 mph - N/A   Clear
2:55 PM 57.2 °F - 44.6 °F 63% 30.42 in - North 5.8 mph - N/A   Clear
3:55 PM 57.2 °F - 46.4 °F 67% 30.45 in - NNW 4.6 mph - N/A   Clear
4:00 PM 57 °F - 46 °F 58% 30.45 in 12 mi NNW 4.6 mph - -  
4:55 PM 53.6 °F - 46.4 °F 77% 30.45 in - North 4.6 mph - N/A   Clear
5:55 PM 50.0 °F - 44.6 °F 82% 30.45 in - North 5.8 mph - N/A   Clear
6:55 PM 50.0 °F - 44.6 °F 82% 30.45 in - North 5.8 mph - N/A   Clear
7:00 PM 49 °F - 45 °F 81% 30.47 in 7 mi North 5.8 mph - -  
7:55 PM 48.2 °F - 44.6 °F 87% 30.45 in - North 5.8 mph - N/A   Clear
8:55 PM 48.2 °F - 44.6 °F 87% 30.48 in - NNE 8.1 mph - N/A   Clear
9:55 PM 48.2 °F - 42.8 °F 82% 30.48 in - NNE 10.4 mph - N/A   Clear
10:00 PM 48 °F - 43 °F 78% 30.49 in 7 mi NNE 10.4 mph - -  
10:55 PM 48.2 °F - 42.8 °F 82% 30.48 in - NNE 10.4 mph - N/A   Clear
11:55 PM 46.4 °F 41.5 °F 42.8 °F 87% 30.48 in - NNE 10.4 mph - N/A   Clear